Skip Page Navigation
NASA JPL Caltech
NASA Logo - Jet Propulsion Laboratory + View the NASA Portal
+ Center for Near-Earth Object Studies
JPL Home Earth Solar System Stars & Galaxies Technology
JPL Solar System Dynamics
BODIES ORBITS EPHEMERIDES TOOLS PHYSICAL DATA DISCOVERY FAQ SITE MAP
IMPORTANT: The SSD Announcement email list is now available. Major changes are coming in the near future, including possible hostname and/or URL changes. To be notified of such changes, subscribe to this email list.

Please visit this page for more details.


JPL Small-Body Database Browser
Search: [ help ]  
376135 (2011 AX66)
Classification: Main-belt Asteroid          SPK-ID: 2376135
Ephemeris | Orbit Diagram | Orbital Elements | Mission Design | Physical Parameters | Discovery Circumstances ]

[ show orbit diagram ]
Orbital Elements at Epoch 2459000.5 (2020-May-31.0) TDB
Reference: JPL 10 (heliocentric ecliptic J2000)
 Element Value Uncertainty (1-sigma)   Units 
e .2040577158206168 6.6623e-08  
a 2.267385034584445 1.7089e-08 au
q 1.804707623541292 1.5449e-07 au
i .5889146021878939 7.0522e-06 deg
node 240.5206068993501 0.00090579 deg
peri 180.3315522936447 0.00090643 deg
M 313.3364160272882 3.6854e-05 deg
tp 2459162.144871886934
(2020-Nov-08.64487189)
0.00012883 TDB
period 1247.057103743386
3.41
1.4099e-05
3.86e-08
d
yr
n .2886796433935228 3.2637e-09 deg/d
Q 2.730062445627596 2.0577e-08 au
  Orbit Determination Parameters
   # obs. used (total)      103  
   data-arc span      7832 days (21.44 yr)  
   first obs. used      1996-10-11  
   last obs. used      2018-03-22  
   planetary ephem.      DE431  
   SB-pert. ephem.      SB431-N16  
   condition code      0  
   norm. resid. RMS      .6596  
   source      ORB  
   producer      Otto Matic  
   solution date      2019-Jul-14 14:03:00  

Additional Information
 Earth MOID = .817479 au 
 Jupiter MOID = 2.5988 au 
 T_jup = 3.587 
[ show covariance matrix ]

Ephemeris | Orbit Diagram | Orbital Elements | Mission Design | Physical Parameters | Discovery Circumstances ]

Physical Parameter Table
Parameter Symbol Value Units Sigma Reference Notes
absolute magnitude H 18.3   n/a MPO434328  

376135 (2011 AX66)          Discovered 1996-Oct-11 by Spacewatch at Kitt Peak
Reference: Last Updated: 2013-10-21

Alternate Designations
 2011 AX66 = 1996 TM47 
Ephemeris | Orbit Diagram | Orbital Elements | Mission Design | Physical Parameters | Discovery Circumstances ]
ABOUT SSD CREDITS/AWARDS PRIVACY/COPYRIGHT GLOSSARY LINKS
FirstGov 2020-Feb-24 00:10 UT
(server date/time)  
NASA Home Page
Site Manager:   Ryan S. Park
Webmaster  Alan B. Chamberlin